Time,TemperatureF,DewpointF,PressureIn,WindDirection,WindDirectionDegrees,WindSpeedMPH,WindSpeedGustMPH,Humidity,HourlyPrecipIn,Conditions,Clouds,dailyrainin,SolarRadiationWatts/m^2,SoftwareType,DateUTC
2013-01-11 00:00:00,44.2,44.2,29.52,South,174,7.0,12.0,100,0.00,,---,0.00,0.00,VWS V14.01,2013-01-11 06:00:00,
2013-01-11 00:05:00,43.8,43.8,29.52,South,181,5.0,11.0,100,0.00,,---,0.00,0.00,VWS V14.01,2013-01-11 06:05:00,
2013-01-11 00:10:00,44.2,44.2,29.52,South,188,10.0,11.0,100,0.00,,---,0.00,0.00,VWS V14.01,2013-01-11 06:10:00,
2013-01-11 00:15:00,44.8,44.8,29.53,SSE,165,11.0,15.0,100,0.00,,---,0.00,0.00,VWS V14.01,2013-01-11 06:15:00,
2013-01-11 00:20:00,44.3,44.3,29.53,South,178,11.0,13.0,100,0.00,,---,0.00,0.00,VWS V14.01,2013-01-11 06:20:00,
2013-01-11 00:25:00,44.6,44.6,29.53,South,179,13.0,15.0,100,0.00,,---,0.00,0.00,VWS V14.01,2013-01-11 06:25:00,
2013-01-11 00:30:00,44.9,44.9,29.52,SSW,192,8.0,13.0,100,0.00,,---,0.00,0.00,VWS V14.01,2013-01-11 06:30:00,
2013-01-11 00:35:00,44.1,44.1,29.52,SSW,195,17.0,22.0,100,0.00,,---,0.00,0.00,VWS V14.01,2013-01-11 06:35:00,
2013-01-11 00:40:00,43.9,43.9,29.52,South,184,16.0,22.0,100,0.00,,---,0.00,0.00,VWS V14.01,2013-01-11 06:40:00,
2013-01-11 00:41:00,45.1,45.1,29.52,South,191,13.0,19.0,100,0.00,,---,0.00,0.00,VWS V14.01,2013-01-11 06:41:00,
2013-01-11 00:45:00,44.5,44.5,29.52,SW,216,18.0,20.0,100,0.00,,---,0.00,0.00,VWS V14.01,2013-01-11 06:45:00,
2013-01-11 00:46:00,43.9,43.9,29.52,SSW,210,18.0,20.0,100,0.00,,---,0.00,0.00,VWS V14.01,2013-01-11 06:46:00,
2013-01-11 00:50:00,43.9,43.9,29.52,SW,217,20.0,25.0,100,0.00,,---,0.00,0.00,VWS V14.01,2013-01-11 06:50:00,
2013-01-11 00:51:00,44.8,44.8,29.52,South,185,18.0,21.0,100,0.00,,---,0.00,0.00,VWS V14.01,2013-01-11 06:51:00,
2013-01-11 00:55:00,44.2,44.2,29.52,SW,224,16.0,24.0,100,0.00,,---,0.00,0.00,VWS V14.01,2013-01-11 06:55:00,
2013-01-11 00:56:00,45.1,45.1,29.52,SSW,210,17.0,20.0,100,0.00,,---,0.00,0.00,VWS V14.01,2013-01-11 06:56:00,
2013-01-11 01:00:00,43.9,43.9,29.53,SSW,192,16.0,21.0,100,0.00,,---,0.00,0.00,VWS V14.01,2013-01-11 07:00:00,
2013-01-11 01:01:00,44.6,44.6,29.53,South,188,18.0,19.0,100,0.00,,---,0.00,0.00,VWS V14.01,2013-01-11 07:01:00,
2013-01-11 01:05:00,44.3,44.3,29.53,SSW,199,17.0,24.0,100,0.00,,---,0.00,0.00,VWS V14.01,2013-01-11 07:05:00,
2013-01-11 01:06:00,45.1,45.1,29.53,SSW,192,21.0,24.0,100,0.00,,---,0.00,0.00,VWS V14.01,2013-01-11 07:06:00,
2013-01-11 01:10:00,44.2,44.2,29.53,SW,215,16.0,24.0,100,0.00,,---,0.00,0.00,VWS V14.01,2013-01-11 07:10:00,
2013-01-11 01:11:00,44.9,44.9,29.53,SSW,195,13.0,20.0,100,0.00,,---,0.00,0.00,VWS V14.01,2013-01-11 07:11:00,
2013-01-11 01:15:00,44.2,44.2,29.51,SSW,196,16.0,24.0,100,0.00,,---,0.00,0.00,VWS V14.01,2013-01-11 07:15:00,
2013-01-11 01:16:00,45.1,45.1,29.51,SSW,199,12.0,20.0,100,0.00,,---,0.00,0.00,VWS V14.01,2013-01-11 07:16:00,
2013-01-11 01:20:00,45.7,45.7,29.51,South,188,18.0,20.0,100,0.01,,---,0.01,0.00,VWS V14.01,2013-01-11 07:20:00,
2013-01-11 01:21:00,45.5,45.5,29.51,South,171,19.0,19.0,100,0.01,,---,0.01,0.00,VWS V14.01,2013-01-11 07:21:00,
2013-01-11 01:25:00,44.5,44.5,29.51,SSW,198,19.0,20.0,100,0.01,,---,0.01,0.00,VWS V14.01,2013-01-11 07:25:00,
2013-01-11 01:26:00,45.4,45.4,29.51,SSW,195,20.0,21.0,100,0.01,,---,0.01,0.00,VWS V14.01,2013-01-11 07:26:00,
2013-01-11 01:30:00,44.3,44.3,29.52,South,182,12.0,21.0,100,0.01,,---,0.01,0.00,VWS V14.01,2013-01-11 07:30:00,
2013-01-11 01:31:00,44.5,44.5,29.52,South,178,13.0,18.0,100,0.01,,---,0.01,0.00,VWS V14.01,2013-01-11 07:31:00,
2013-01-11 01:35:00,44.3,44.3,29.52,South,191,16.0,19.0,100,0.01,,---,0.01,0.00,VWS V14.01,2013-01-11 07:35:00,
2013-01-11 01:37:00,44.5,44.5,29.52,NW,318,14.0,18.0,100,0.01,,---,0.01,0.00,VWS V14.01,2013-01-11 07:37:00,
2013-01-11 01:40:00,45.7,45.7,29.52,South,189,11.0,21.0,100,0.01,,---,0.01,0.00,VWS V14.01,2013-01-11 07:40:00,
2013-01-11 01:42:00,44.5,44.5,29.52,South,182,17.0,24.0,100,0.01,,---,0.01,0.00,VWS V14.01,2013-01-11 07:42:00,
2013-01-11 01:45:00,45.1,45.1,29.50,SSW,206,12.0,24.0,100,0.01,,---,0.01,0.00,VWS V14.01,2013-01-11 07:45:00,
2013-01-11 01:47:00,45.5,45.5,29.50,South,185,17.0,18.0,100,0.01,,---,0.01,0.00,VWS V14.01,2013-01-11 07:47:00,
2013-01-11 01:50:00,45.8,45.8,29.50,SSW,210,26.0,26.0,100,0.01,,---,0.01,0.00,VWS V14.01,2013-01-11 07:50:00,
2013-01-11 01:52:00,44.6,44.6,29.50,South,191,19.0,26.0,100,0.01,,---,0.01,0.00,VWS V14.01,2013-01-11 07:52:00,
2013-01-11 01:55:00,45.4,45.4,29.50,SW,234,17.0,26.0,100,0.01,,---,0.01,0.00,VWS V14.01,2013-01-11 07:55:00,
2013-01-11 01:57:00,45.8,45.8,29.50,SW,215,14.0,26.0,100,0.01,,---,0.01,0.00,VWS V14.01,2013-01-11 07:57:00,
2013-01-11 02:00:00,44.9,44.9,29.50,SSW,212,19.0,26.0,100,0.01,,---,0.01,0.00,VWS V14.01,2013-01-11 08:00:00,
2013-01-11 02:02:00,44.9,44.9,29.50,SSW,212,24.0,27.0,100,0.01,,---,0.01,0.00,VWS V14.01,2013-01-11 08:02:00,
2013-01-11 02:05:00,45.8,45.8,29.50,SSW,212,21.0,27.0,100,0.01,,---,0.01,0.00,VWS V14.01,2013-01-11 08:05:00,
2013-01-11 02:07:00,45.8,45.8,29.50,SSW,209,19.0,24.0,100,0.01,,---,0.01,0.00,VWS V14.01,2013-01-11 08:07:00,
2013-01-11 02:10:00,45.8,45.8,29.50,SW,232,21.0,25.0,100,0.01,,---,0.01,0.00,VWS V14.01,2013-01-11 08:10:00,
2013-01-11 02:12:00,45.1,45.1,29.50,SSW,195,19.0,24.0,100,0.01,,---,0.01,0.00,VWS V14.01,2013-01-11 08:12:00,
2013-01-11 02:15:00,45.7,45.7,29.49,South,191,12.0,24.0,100,0.01,,---,0.01,0.00,VWS V14.01,2013-01-11 08:15:00,
2013-01-11 02:17:00,45.2,45.2,29.49,SSW,209,14.0,21.0,100,0.01,,---,0.01,0.00,VWS V14.01,2013-01-11 08:17:00,
2013-01-11 02:20:00,44.8,44.8,29.49,South,184,20.0,21.0,100,0.01,,---,0.01,0.00,VWS V14.01,2013-01-11 08:20:00,
2013-01-11 02:22:00,44.6,44.6,29.49,South,188,12.0,20.0,100,0.00,,---,0.01,0.00,VWS V14.01,2013-01-11 08:22:00,
2013-01-11 02:25:00,44.9,44.9,29.49,SSW,213,11.0,21.0,100,0.00,,---,0.01,0.00,VWS V14.01,2013-01-11 08:25:00,
2013-01-11 02:27:00,45.7,45.7,29.49,South,185,14.0,20.0,100,0.00,,---,0.01,0.00,VWS V14.01,2013-01-11 08:27:00,
2013-01-11 02:30:00,45.4,45.4,29.48,South,185,16.0,20.0,100,0.00,,---,0.01,0.00,VWS V14.01,2013-01-11 08:30:00,
2013-01-11 02:32:00,45.1,45.1,29.48,South,179,13.0,19.0,100,0.00,,---,0.01,0.00,VWS V14.01,2013-01-11 08:32:00,
2013-01-11 02:35:00,44.8,44.8,29.48,South,185,11.0,19.0,100,0.00,,---,0.01,0.00,VWS V14.01,2013-01-11 08:35:00,
2013-01-11 02:37:00,44.8,44.8,29.48,South,191,13.0,19.0,100,0.00,,---,0.01,0.00,VWS V14.01,2013-01-11 08:37:00,
2013-01-11 02:40:00,46.0,46.0,29.48,South,174,9.0,20.0,100,0.00,,---,0.01,0.00,VWS V14.01,2013-01-11 08:40:00,
2013-01-11 02:42:00,45.1,45.1,29.48,South,184,13.0,20.0,100,0.00,,---,0.01,0.00,VWS V14.01,2013-01-11 08:42:00,
2013-01-11 02:45:00,44.8,44.8,29.47,South,179,13.0,20.0,100,0.00,,---,0.01,0.00,VWS V14.01,2013-01-11 08:45:00,
2013-01-11 02:47:00,45.8,45.8,29.47,SSE,164,10.0,18.0,100,0.00,,---,0.01,0.00,VWS V14.01,2013-01-11 08:47:00,
2013-01-11 02:50:00,44.9,44.9,29.47,SSE,151,13.0,20.0,100,0.00,,---,0.01,0.00,VWS V14.01,2013-01-11 08:50:00,
2013-01-11 02:53:00,45.8,45.8,29.47,South,169,12.0,22.0,100,0.00,,---,0.01,0.00,VWS V14.01,2013-01-11 08:53:00,
2013-01-11 02:55:00,45.4,45.4,29.47,SSE,162,12.0,22.0,100,0.00,,---,0.01,0.00,VWS V14.01,2013-01-11 08:55:00,
2013-01-11 02:58:00,45.1,45.1,29.47,South,181,8.0,21.0,100,0.00,,---,0.01,0.00,VWS V14.01,2013-01-11 08:58:00,
2013-01-11 03:00:00,45.1,45.1,29.46,SSE,161,14.0,21.0,100,0.00,,---,0.01,0.00,VWS V14.01,2013-01-11 09:00:00,
2013-01-11 03:03:00,45.5,45.5,29.46,South,181,16.0,20.0,100,0.00,,---,0.01,0.00,VWS V14.01,2013-01-11 09:03:00,
2013-01-11 03:05:00,46.0,46.0,29.46,South,188,19.0,21.0,100,0.00,,---,0.01,0.00,VWS V14.01,2013-01-11 09:05:00,
2013-01-11 03:08:00,45.8,45.8,29.46,South,174,17.0,25.0,100,0.00,,---,0.01,0.00,VWS V14.01,2013-01-11 09:08:00,
2013-01-11 03:10:00,46.1,46.1,29.46,SSW,193,18.0,25.0,100,0.00,,---,0.01,0.00,VWS V14.01,2013-01-11 09:10:00,
2013-01-11 03:13:00,46.2,46.2,29.46,South,179,13.0,25.0,100,0.00,,---,0.01,0.00,VWS V14.01,2013-01-11 09:13:00,
2013-01-11 03:15:00,46.2,46.2,29.46,South,181,16.0,25.0,100,0.00,,---,0.01,0.00,VWS V14.01,2013-01-11 09:15:00,
2013-01-11 03:18:00,46.0,46.0,29.46,SSW,208,14.0,24.0,100,0.00,,---,0.01,0.00,VWS V14.01,2013-01-11 09:18:00,
2013-01-11 03:20:00,46.1,46.1,29.46,SSE,157,12.0,24.0,100,0.00,,---,0.01,0.00,VWS V14.01,2013-01-11 09:20:00,
2013-01-11 03:23:00,45.5,45.5,29.46,South,181,17.0,21.0,100,0.00,,---,0.01,0.00,VWS V14.01,2013-01-11 09:23:00,
2013-01-11 03:25:00,45.5,45.5,29.46,SSW,209,24.0,26.0,100,0.00,,---,0.01,0.00,VWS V14.01,2013-01-11 09:25:00,
2013-01-11 03:28:00,46.2,46.2,29.45,South,184,15.0,25.0,100,0.00,,---,0.01,0.00,VWS V14.01,2013-01-11 09:28:00,
2013-01-11 03:30:00,45.8,45.8,29.45,South,176,18.0,25.0,100,0.00,,---,0.01,0.00,VWS V14.01,2013-01-11 09:30:00,
2013-01-11 03:33:00,45.8,45.8,29.45,South,191,17.0,24.0,100,0.00,,---,0.01,0.00,VWS V14.01,2013-01-11 09:33:00,
2013-01-11 03:35:00,46.0,46.0,29.45,South,181,16.0,24.0,100,0.00,,---,0.01,0.00,VWS V14.01,2013-01-11 09:35:00,
2013-01-11 03:38:00,46.0,46.0,29.45,South,174,18.0,19.0,100,0.00,,---,0.01,0.00,VWS V14.01,2013-01-11 09:38:00,
2013-01-11 03:40:00,45.8,45.8,29.45,SW,215,17.0,19.0,100,0.00,,---,0.01,0.00,VWS V14.01,2013-01-11 09:40:00,
2013-01-11 03:43:00,46.1,46.1,29.43,SSE,161,26.0,26.0,100,0.00,,---,0.01,0.00,VWS V14.01,2013-01-11 09:43:00,
2013-01-11 03:45:00,46.1,46.1,29.43,South,169,21.0,26.0,100,0.00,,---,0.01,0.00,VWS V14.01,2013-01-11 09:45:00,
2013-01-11 03:48:00,46.1,46.1,29.43,South,178,19.0,27.0,100,0.00,,---,0.01,0.00,VWS V14.01,2013-01-11 09:48:00,
2013-01-11 03:50:00,46.2,46.2,29.43,South,178,16.0,27.0,100,0.00,,---,0.01,0.00,VWS V14.01,2013-01-11 09:50:00,
2013-01-11 03:53:00,46.2,46.2,29.43,South,181,10.0,21.0,100,0.00,,---,0.01,0.00,VWS V14.01,2013-01-11 09:53:00,
2013-01-11 03:55:00,46.1,46.1,29.43,South,189,19.0,21.0,100,0.00,,---,0.01,0.00,VWS V14.01,2013-01-11 09:55:00,
2013-01-11 03:58:00,46.2,46.2,29.42,South,179,21.0,24.0,100,0.00,,---,0.01,0.00,VWS V14.01,2013-01-11 09:58:00,
2013-01-11 04:00:00,46.2,46.2,29.42,South,179,21.0,24.0,100,0.00,,---,0.01,0.00,VWS V14.01,2013-01-11 10:00:00,
2013-01-11 04:04:00,46.4,46.4,29.42,South,174,16.0,26.0,100,0.00,,---,0.01,0.00,VWS V14.01,2013-01-11 10:04:00,
2013-01-11 04:05:00,46.4,46.4,29.42,South,175,20.0,26.0,100,0.00,,---,0.01,0.00,VWS V14.01,2013-01-11 10:05:00,
2013-01-11 04:09:00,46.4,46.4,29.42,SSW,213,13.0,26.0,100,0.00,,---,0.01,0.00,VWS V14.01,2013-01-11 10:09:00,
2013-01-11 04:10:00,46.4,46.4,29.42,South,189,18.0,26.0,100,0.00,,---,0.01,0.00,VWS V14.01,2013-01-11 10:10:00,
2013-01-11 04:14:00,46.5,46.5,29.41,South,169,19.0,27.0,100,0.00,,---,0.01,0.00,VWS V14.01,2013-01-11 10:14:00,
2013-01-11 04:15:00,46.5,46.5,29.41,South,186,22.0,27.0,100,0.00,,---,0.01,0.00,VWS V14.01,2013-01-11 10:15:00,
2013-01-11 04:19:00,46.4,46.4,29.41,South,176,20.0,22.0,100,0.00,,---,0.01,0.00,VWS V14.01,2013-01-11 10:19:00,
2013-01-11 04:20:00,46.4,46.4,29.41,South,176,20.0,22.0,100,0.00,,---,0.01,0.00,VWS V14.01,2013-01-11 10:20:00,
2013-01-11 04:24:00,46.4,46.4,29.41,South,188,16.0,26.0,100,0.00,,---,0.01,0.00,VWS V14.01,2013-01-11 10:24:00,
2013-01-11 04:25:00,46.4,46.4,29.41,South,188,16.0,26.0,100,0.00,,---,0.01,0.00,VWS V14.01,2013-01-11 10:25:00,
2013-01-11 04:29:00,46.5,46.5,29.39,South,171,14.0,27.0,100,0.00,,---,0.01,0.00,VWS V14.01,2013-01-11 10:29:00,
2013-01-11 04:30:00,46.5,46.5,29.39,South,171,18.0,27.0,100,0.00,,---,0.01,0.00,VWS V14.01,2013-01-11 10:30:00,
2013-01-11 04:34:00,46.5,46.5,29.39,South,172,17.0,28.0,100,0.00,,---,0.01,0.00,VWS V14.01,2013-01-11 10:34:00,
2013-01-11 04:35:00,46.5,46.5,29.39,South,172,17.0,28.0,100,0.00,,---,0.01,0.00,VWS V14.01,2013-01-11 10:35:00,
2013-01-11 04:39:00,46.4,46.4,29.39,South,191,13.0,27.0,100,0.00,,---,0.01,0.00,VWS V14.01,2013-01-11 10:39:00,
2013-01-11 04:40:00,46.4,46.4,29.39,South,191,13.0,27.0,100,0.00,,---,0.01,0.00,VWS V14.01,2013-01-11 10:40:00,
2013-01-11 04:44:00,46.4,46.4,29.38,South,182,16.0,26.0,100,0.00,,---,0.01,0.00,VWS V14.01,2013-01-11 10:44:00,
2013-01-11 04:45:00,46.4,46.4,29.38,South,182,16.0,26.0,100,0.00,,---,0.01,0.00,VWS V14.01,2013-01-11 10:45:00,
2013-01-11 04:49:00,46.4,46.4,29.38,South,186,17.0,24.0,100,0.00,,---,0.01,0.00,VWS V14.01,2013-01-11 10:49:00,
2013-01-11 04:50:00,46.4,46.4,29.38,South,186,17.0,24.0,100,0.00,,---,0.01,0.00,VWS V14.01,2013-01-11 10:50:00,
2013-01-11 04:54:00,46.2,46.2,29.38,South,179,14.0,14.0,100,0.00,,---,0.01,0.00,VWS V14.01,2013-01-11 10:54:00,
2013-01-11 04:55:00,46.4,46.4,29.38,South,181,14.0,24.0,100,0.00,,---,0.01,0.00,VWS V14.01,2013-01-11 10:55:00,
2013-01-11 04:59:00,46.2,46.2,29.38,South,176,20.0,20.0,100,0.00,,---,0.01,0.00,VWS V14.01,2013-01-11 10:59:00,
2013-01-11 05:00:00,46.2,46.2,29.38,South,186,16.0,24.0,100,0.00,,---,0.01,0.00,VWS V14.01,2013-01-11 11:00:00,
2013-01-11 05:04:00,46.2,46.2,29.38,South,191,18.0,22.0,100,0.00,,---,0.01,0.00,VWS V14.01,2013-01-11 11:04:00,
2013-01-11 05:05:00,46.2,46.2,29.38,South,178,18.0,25.0,100,0.00,,---,0.01,0.00,VWS V14.01,2013-01-11 11:05:00,
2013-01-11 05:09:00,46.2,46.2,29.38,South,184,22.0,25.0,100,0.00,,---,0.01,0.00,VWS V14.01,2013-01-11 11:09:00,
2013-01-11 05:10:00,46.2,46.2,29.38,South,172,18.0,24.0,100,0.00,,---,0.01,0.00,VWS V14.01,2013-01-11 11:10:00,
2013-01-11 05:15:00,46.2,46.2,29.37,South,175,11.0,19.0,100,0.00,,---,0.01,0.00,VWS V14.01,2013-01-11 11:15:00,
2013-01-11 05:20:00,46.2,46.2,29.37,South,176,19.0,24.0,100,0.00,,---,0.01,0.00,VWS V14.01,2013-01-11 11:20:00,
2013-01-11 05:25:00,46.2,46.2,29.37,South,172,13.0,20.0,100,0.00,,---,0.01,0.00,VWS V14.01,2013-01-11 11:25:00,
2013-01-11 05:30:00,46.2,45.9,29.36,SSW,210,18.0,21.0,99,0.00,,---,0.01,0.00,VWS V14.01,2013-01-11 11:30:00,
2013-01-11 05:35:00,46.2,45.9,29.36,South,176,19.0,24.0,99,0.00,,---,0.01,0.00,VWS V14.01,2013-01-11 11:35:00,
2013-01-11 05:40:00,46.2,45.9,29.36,South,179,19.0,24.0,99,0.00,,---,0.01,0.00,VWS V14.01,2013-01-11 11:40:00,
2013-01-11 05:45:00,46.1,45.8,29.35,South,178,14.0,24.0,99,0.00,,---,0.01,0.00,VWS V14.01,2013-01-11 11:45:00,
2013-01-11 05:50:00,46.1,45.8,29.35,SSE,168,22.0,27.0,99,0.00,,---,0.01,0.00,VWS V14.01,2013-01-11 11:50:00,
2013-01-11 05:55:00,46.1,45.8,29.35,South,186,21.0,27.0,99,0.00,,---,0.01,0.00,VWS V14.01,2013-01-11 11:55:00,
2013-01-11 05:56:00,46.1,45.6,29.35,South,184,18.0,24.0,98,0.00,,---,0.01,0.00,VWS V14.01,2013-01-11 11:56:00,
2013-01-11 06:00:00,46.1,45.6,29.36,South,186,16.0,26.0,98,0.00,,---,0.01,0.00,VWS V14.01,2013-01-11 12:00:00,
2013-01-11 06:01:00,46.1,45.6,29.36,South,181,17.0,24.0,98,0.00,,---,0.01,0.00,VWS V14.01,2013-01-11 12:01:00,
2013-01-11 06:05:00,46.1,45.6,29.36,South,186,20.0,24.0,98,0.00,,---,0.01,0.00,VWS V14.01,2013-01-11 12:05:00,
2013-01-11 06:06:00,46.1,45.6,29.36,South,185,21.0,29.0,98,0.00,,---,0.01,0.00,VWS V14.01,2013-01-11 12:06:00,
2013-01-11 06:10:00,46.1,45.3,29.36,South,189,22.0,29.0,97,0.00,,---,0.01,0.00,VWS V14.01,2013-01-11 12:10:00,
2013-01-11 06:11:00,46.2,45.4,29.36,SSW,198,27.0,27.0,97,0.00,,---,0.01,0.00,VWS V14.01,2013-01-11 12:11:00,
2013-01-11 06:15:00,46.2,45.4,29.35,South,185,24.0,27.0,97,0.00,,---,0.01,0.00,VWS V14.01,2013-01-11 12:15:00,
2013-01-11 06:16:00,46.2,45.1,29.35,South,188,26.0,26.0,96,0.00,,---,0.01,0.00,VWS V14.01,2013-01-11 12:16:00,
2013-01-11 06:20:00,46.1,45.0,29.35,SSW,195,17.0,26.0,96,0.00,,---,0.01,0.00,VWS V14.01,2013-01-11 12:20:00,
2013-01-11 06:21:00,46.1,45.0,29.35,SSW,195,18.0,21.0,96,0.00,,---,0.01,0.00,VWS V14.01,2013-01-11 12:21:00,
2013-01-11 06:25:00,46.0,44.9,29.35,South,185,20.0,24.0,96,0.00,,---,0.01,0.00,VWS V14.01,2013-01-11 12:25:00,
2013-01-11 06:26:00,46.0,44.9,29.35,South,185,18.0,26.0,96,0.00,,---,0.01,0.00,VWS V14.01,2013-01-11 12:26:00,
2013-01-11 06:30:00,46.0,44.9,29.36,SSW,196,13.0,26.0,96,0.00,,---,0.01,0.00,VWS V14.01,2013-01-11 12:30:00,
2013-01-11 06:31:00,46.0,44.7,29.36,SSW,205,17.0,21.0,95,0.00,,---,0.01,0.00,VWS V14.01,2013-01-11 12:31:00,
2013-01-11 06:35:00,46.0,44.7,29.36,SW,215,15.0,24.0,95,0.00,,---,0.01,0.00,VWS V14.01,2013-01-11 12:35:00,
2013-01-11 06:36:00,46.0,44.7,29.36,South,191,19.0,27.0,95,0.00,,---,0.01,0.00,VWS V14.01,2013-01-11 12:36:00,
2013-01-11 06:40:00,46.0,44.7,29.36,South,184,21.0,27.0,95,0.00,,---,0.01,0.00,VWS V14.01,2013-01-11 12:40:00,
2013-01-11 06:41:00,46.0,44.7,29.36,South,185,20.0,27.0,95,0.00,,---,0.01,0.00,VWS V14.01,2013-01-11 12:41:00,
2013-01-11 06:45:00,45.8,44.5,29.36,South,181,15.0,27.0,95,0.00,,---,0.01,0.00,VWS V14.01,2013-01-11 12:45:00,
2013-01-11 06:46:00,45.8,44.2,29.36,South,178,18.0,25.0,94,0.00,,---,0.01,0.00,VWS V14.01,2013-01-11 12:46:00,
2013-01-11 06:50:00,45.8,44.2,29.36,South,182,20.0,25.0,94,0.00,,---,0.01,0.00,VWS V14.01,2013-01-11 12:50:00,
2013-01-11 06:51:00,45.7,44.1,29.36,SSE,168,20.0,28.0,94,0.00,,---,0.01,0.00,VWS V14.01,2013-01-11 12:51:00,
2013-01-11 06:55:00,45.7,44.1,29.36,South,174,13.0,28.0,94,0.00,,---,0.01,0.00,VWS V14.01,2013-01-11 12:55:00,
2013-01-11 06:57:00,45.7,44.1,29.36,South,169,26.0,27.0,94,0.00,,---,0.01,0.00,VWS V14.01,2013-01-11 12:57:00,
2013-01-11 07:00:00,45.7,44.1,29.37,SSE,162,13.0,27.0,94,0.00,,---,0.01,0.00,VWS V14.01,2013-01-11 13:00:00,
2013-01-11 07:02:00,45.5,43.6,29.37,South,181,24.0,25.0,93,0.00,,---,0.01,0.00,VWS V14.01,2013-01-11 13:02:00,
2013-01-11 07:05:00,45.5,43.6,29.37,South,178,14.0,25.0,93,0.00,,---,0.01,0.00,VWS V14.01,2013-01-11 13:05:00,
2013-01-11 07:07:00,45.5,43.6,29.37,South,172,19.0,25.0,93,0.00,,---,0.01,0.00,VWS V14.01,2013-01-11 13:07:00,
2013-01-11 07:10:00,45.5,43.6,29.37,South,179,16.0,25.0,93,0.00,,---,0.01,0.00,VWS V14.01,2013-01-11 13:10:00,
2013-01-11 07:12:00,45.5,43.6,29.37,South,172,21.0,21.0,93,0.00,,---,0.01,0.00,VWS V14.01,2013-01-11 13:12:00,
2013-01-11 07:15:00,45.5,43.3,29.36,South,188,14.0,21.0,92,0.00,,---,0.01,0.00,VWS V14.01,2013-01-11 13:15:00,
2013-01-11 07:17:00,45.4,43.2,29.36,South,189,16.0,24.0,92,0.00,,---,0.01,0.00,VWS V14.01,2013-01-11 13:17:00,
2013-01-11 07:20:00,45.4,43.2,29.36,South,181,16.0,24.0,92,0.00,,---,0.01,0.00,VWS V14.01,2013-01-11 13:20:00,
2013-01-11 07:22:00,45.4,43.2,29.36,South,174,26.0,26.0,92,0.00,,---,0.01,0.00,VWS V14.01,2013-01-11 13:22:00,
2013-01-11 07:25:00,45.4,43.2,29.36,South,179,16.0,26.0,92,0.00,,---,0.01,0.00,VWS V14.01,2013-01-11 13:25:00,
2013-01-11 07:27:00,45.4,43.2,29.36,South,182,13.0,21.0,92,0.00,,---,0.01,0.00,VWS V14.01,2013-01-11 13:27:00,
2013-01-11 07:30:00,45.4,43.2,29.37,SSW,192,17.0,21.0,92,0.00,,---,0.01,0.00,VWS V14.01,2013-01-11 13:30:00,
2013-01-11 07:32:00,45.4,43.2,29.37,South,169,12.0,19.0,92,0.00,,---,0.01,0.00,VWS V14.01,2013-01-11 13:32:00,
2013-01-11 07:35:00,45.4,43.2,29.37,South,175,16.0,19.0,92,0.00,,---,0.01,0.00,VWS V14.01,2013-01-11 13:35:00,
2013-01-11 07:37:00,45.4,43.2,29.37,South,169,11.0,22.0,92,0.00,,---,0.01,0.00,VWS V14.01,2013-01-11 13:37:00,
2013-01-11 07:40:00,45.2,43.0,29.37,South,178,12.0,22.0,92,0.00,,---,0.01,0.00,VWS V14.01,2013-01-11 13:40:00,
2013-01-11 07:43:00,45.4,43.2,29.37,South,178,18.0,24.0,92,0.00,,---,0.01,0.00,VWS V14.01,2013-01-11 13:43:00,
2013-01-11 07:45:00,45.2,43.0,29.36,South,186,16.0,24.0,92,0.00,,---,0.01,0.00,VWS V14.01,2013-01-11 13:45:00,
2013-01-11 07:48:00,45.4,43.2,29.36,South,175,20.0,25.0,92,0.00,,---,0.01,0.00,VWS V14.01,2013-01-11 13:48:00,
2013-01-11 07:50:00,45.4,43.2,29.36,South,176,22.0,27.0,92,0.00,,---,0.01,0.00,VWS V14.01,2013-01-11 13:50:00,
2013-01-11 07:53:00,45.4,42.9,29.36,SSE,161,25.0,26.0,91,0.00,,---,0.01,0.00,VWS V14.01,2013-01-11 13:53:00,
2013-01-11 07:55:00,45.4,42.9,29.36,SSE,167,12.0,26.0,91,0.00,,---,0.01,0.00,VWS V14.01,2013-01-11 13:55:00,
2013-01-11 07:58:00,45.4,42.9,29.36,South,184,19.0,25.0,91,0.00,,---,0.01,0.00,VWS V14.01,2013-01-11 13:58:00,
2013-01-11 08:00:00,45.4,42.9,29.36,SSW,195,18.0,25.0,91,0.00,,---,0.01,0.00,VWS V14.01,2013-01-11 14:00:00,
2013-01-11 08:03:00,45.4,42.9,29.36,South,171,16.0,27.0,91,0.00,,---,0.01,7.00,VWS V14.01,2013-01-11 14:03:00,
2013-01-11 08:05:00,45.4,42.9,29.36,SSW,212,17.0,27.0,91,0.00,,---,0.01,7.00,VWS V14.01,2013-01-11 14:05:00,
2013-01-11 08:08:00,45.4,42.6,29.36,South,189,21.0,28.0,90,0.00,,---,0.01,12.00,VWS V14.01,2013-01-11 14:08:00,
2013-01-11 08:10:00,45.4,42.6,29.36,South,184,20.0,28.0,90,0.00,,---,0.01,12.00,VWS V14.01,2013-01-11 14:10:00,
2013-01-11 08:13:00,45.4,42.6,29.37,South,181,16.0,30.0,90,0.00,,---,0.01,9.00,VWS V14.01,2013-01-11 14:13:00,
2013-01-11 08:15:00,45.4,42.6,29.37,SSW,192,24.0,30.0,90,0.00,,---,0.01,14.00,VWS V14.01,2013-01-11 14:15:00,
2013-01-11 08:18:00,45.2,42.5,29.37,South,184,26.0,30.0,90,0.00,,---,0.01,19.00,VWS V14.01,2013-01-11 14:18:00,
2013-01-11 08:20:00,45.2,42.5,29.37,SSW,192,17.0,30.0,90,0.00,,---,0.01,19.00,VWS V14.01,2013-01-11 14:20:00,
2013-01-11 08:23:00,45.2,42.5,29.37,South,181,14.0,26.0,90,0.00,,---,0.01,19.00,VWS V14.01,2013-01-11 14:23:00,
2013-01-11 08:25:00,45.2,42.5,29.37,South,189,17.0,26.0,90,0.00,,---,0.01,19.00,VWS V14.01,2013-01-11 14:25:00,
2013-01-11 08:28:00,45.2,42.2,29.36,South,185,20.0,33.0,89,0.00,,---,0.01,21.00,VWS V14.01,2013-01-11 14:28:00,
2013-01-11 08:30:00,45.4,42.3,29.36,SSW,195,21.0,33.0,89,0.00,,---,0.01,21.00,VWS V14.01,2013-01-11 14:30:00,
2013-01-11 08:34:00,45.4,42.3,29.36,South,178,22.0,28.0,89,0.00,,---,0.01,42.00,VWS V14.01,2013-01-11 14:34:00,
2013-01-11 08:35:00,45.4,42.3,29.36,South,171,24.0,28.0,89,0.00,,---,0.01,42.00,VWS V14.01,2013-01-11 14:35:00,
2013-01-11 08:39:00,45.5,42.5,29.36,South,181,24.0,30.0,89,0.00,,---,0.01,42.00,VWS V14.01,2013-01-11 14:39:00,
2013-01-11 08:40:00,45.5,42.5,29.36,South,178,21.0,30.0,89,0.00,,---,0.01,42.00,VWS V14.01,2013-01-11 14:40:00,
2013-01-11 08:44:00,45.7,42.7,29.37,South,182,24.0,33.0,89,0.00,,---,0.01,53.00,VWS V14.01,2013-01-11 14:44:00,
2013-01-11 08:45:00,45.7,42.7,29.37,SW,219,20.0,33.0,89,0.00,,---,0.01,53.00,VWS V14.01,2013-01-11 14:45:00,
2013-01-11 08:49:00,45.8,42.8,29.37,SSW,192,27.0,31.0,89,0.00,,---,0.01,49.00,VWS V14.01,2013-01-11 14:49:00,
2013-01-11 08:50:00,45.8,42.8,29.37,SSW,192,27.0,31.0,89,0.00,,---,0.01,49.00,VWS V14.01,2013-01-11 14:50:00,
2013-01-11 08:54:00,46.0,42.7,29.37,South,186,22.0,30.0,88,0.00,,---,0.01,48.00,VWS V14.01,2013-01-11 14:54:00,
2013-01-11 08:55:00,46.0,42.7,29.37,South,186,22.0,30.0,88,0.00,,---,0.01,48.00,VWS V14.01,2013-01-11 14:55:00,
2013-01-11 08:59:00,46.1,42.5,29.37,South,175,33.0,35.0,87,0.00,,---,0.01,44.00,VWS V14.01,2013-01-11 14:59:00,
2013-01-11 09:00:00,46.1,42.5,29.37,South,169,26.0,35.0,87,0.00,,---,0.01,44.00,VWS V14.01,2013-01-11 15:00:00,
2013-01-11 09:04:00,46.2,42.2,29.37,SSW,203,24.0,34.0,86,0.00,,---,0.01,53.00,VWS V14.01,2013-01-11 15:04:00,
2013-01-11 09:05:00,46.2,42.2,29.37,West,267,25.0,34.0,86,0.00,,---,0.01,53.00,VWS V14.01,2013-01-11 15:05:00,
2013-01-11 09:09:00,46.4,42.5,29.37,WNW,292,21.0,28.0,86,0.00,,---,0.01,76.00,VWS V14.01,2013-01-11 15:09:00,
2013-01-11 09:10:00,46.4,42.5,29.37,SW,220,28.0,33.0,86,0.00,,---,0.01,76.00,VWS V14.01,2013-01-11 15:10:00,
2013-01-11 09:14:00,46.5,42.2,29.37,SW,215,28.0,28.0,85,0.00,,---,0.01,74.00,VWS V14.01,2013-01-11 15:14:00,
2013-01-11 09:15:00,46.5,42.2,29.37,SSW,203,27.0,32.0,85,0.00,,---,0.01,74.00,VWS V14.01,2013-01-11 15:15:00,
2013-01-11 09:19:00,46.7,42.1,29.37,South,178,30.0,30.0,84,0.00,,---,0.01,49.00,VWS V14.01,2013-01-11 15:19:00,
2013-01-11 09:20:00,46.7,42.1,29.37,SSE,165,29.0,35.0,84,0.00,,---,0.01,49.00,VWS V14.01,2013-01-11 15:20:00,
2013-01-11 09:24:00,46.8,42.2,29.37,SSW,199,20.0,27.0,84,0.00,,---,0.01,72.00,VWS V14.01,2013-01-11 15:24:00,
2013-01-11 09:25:00,46.8,42.2,29.37,South,172,27.0,35.0,84,0.00,,---,0.01,72.00,VWS V14.01,2013-01-11 15:25:00,
2013-01-11 09:29:00,46.8,42.2,29.36,WSW,258,18.0,34.0,84,0.00,,---,0.01,107.00,VWS V14.01,2013-01-11 15:29:00,
2013-01-11 09:30:00,46.8,42.2,29.36,SSW,196,21.0,34.0,84,0.00,,---,0.01,107.00,VWS V14.01,2013-01-11 15:30:00,
2013-01-11 09:34:00,47.0,42.4,29.36,SSW,210,29.0,30.0,84,0.00,,---,0.01,132.00,VWS V14.01,2013-01-11 15:34:00,
2013-01-11 09:35:00,46.8,42.2,29.36,SSW,199,18.0,34.0,84,0.00,,---,0.01,132.00,VWS V14.01,2013-01-11 15:35:00,
2013-01-11 09:40:00,47.1,42.5,29.36,South,188,20.0,30.0,84,0.00,,---,0.01,146.00,VWS V14.01,2013-01-11 15:40:00,
2013-01-11 09:45:00,47.3,42.7,29.36,SSW,198,28.0,28.0,84,0.00,,---,0.01,209.00,VWS V14.01,2013-01-11 15:45:00,
2013-01-11 09:50:00,47.9,43.0,29.36,SSW,199,30.0,31.0,83,0.00,,---,0.01,243.00,VWS V14.01,2013-01-11 15:50:00,
2013-01-11 09:55:00,48.5,43.3,29.36,South,188,20.0,27.0,82,0.00,,---,0.01,187.00,VWS V14.01,2013-01-11 15:55:00,
2013-01-11 10:00:00,48.3,42.8,29.36,SSW,208,24.0,27.0,81,0.00,,---,0.01,162.00,VWS V14.01,2013-01-11 16:00:00,
2013-01-11 10:05:00,48.3,42.8,29.36,South,188,19.0,27.0,81,0.00,,---,0.01,134.00,VWS V14.01,2013-01-11 16:05:00,
2013-01-11 10:10:00,48.3,42.8,29.36,SW,215,29.0,29.0,81,0.00,,---,0.01,127.00,VWS V14.01,2013-01-11 16:10:00,
2013-01-11 10:15:00,48.3,42.8,29.36,SSW,192,26.0,34.0,81,0.00,,---,0.01,125.00,VWS V14.01,2013-01-11 16:15:00,
2013-01-11 10:20:00,48.2,42.3,29.36,South,169,16.0,28.0,80,0.00,,---,0.01,118.00,VWS V14.01,2013-01-11 16:20:00,
2013-01-11 10:25:00,48.2,42.7,29.36,South,181,16.0,25.0,81,0.00,,---,0.01,109.00,VWS V14.01,2013-01-11 16:25:00,
2013-01-11 10:30:00,48.0,42.5,29.36,South,175,21.0,21.0,81,0.00,,---,0.01,86.00,VWS V14.01,2013-01-11 16:30:00,
2013-01-11 10:35:00,48.0,42.5,29.36,South,191,21.0,27.0,81,0.00,,---,0.01,83.00,VWS V14.01,2013-01-11 16:35:00,
2013-01-11 10:40:00,48.0,42.5,29.36,South,191,21.0,26.0,81,0.00,,---,0.01,91.00,VWS V14.01,2013-01-11 16:40:00,
2013-01-11 10:45:00,48.0,42.5,29.37,South,189,21.0,28.0,81,0.00,,---,0.01,95.00,VWS V14.01,2013-01-11 16:45:00,
2013-01-11 10:46:00,48.0,42.5,29.37,South,175,25.0,25.0,81,0.00,,---,0.01,91.00,VWS V14.01,2013-01-11 16:46:00,
2013-01-11 10:50:00,48.0,42.5,29.37,South,172,22.0,26.0,81,0.00,,---,0.01,93.00,VWS V14.01,2013-01-11 16:50:00,
2013-01-11 10:51:00,47.9,42.4,29.37,SSE,165,26.0,26.0,81,0.00,,---,0.01,93.00,VWS V14.01,2013-01-11 16:51:00,
2013-01-11 10:55:00,47.9,42.4,29.37,SSW,192,14.0,30.0,81,0.00,,---,0.01,107.00,VWS V14.01,2013-01-11 16:55:00,
2013-01-11 10:56:00,48.0,42.5,29.37,SSW,192,24.0,25.0,81,0.00,,---,0.01,111.00,VWS V14.01,2013-01-11 16:56:00,
2013-01-11 11:00:00,48.0,42.5,29.38,SW,219,27.0,27.0,81,0.00,,---,0.01,118.00,VWS V14.01,2013-01-11 17:00:00,
2013-01-11 11:01:00,48.0,42.8,29.38,SW,217,14.0,27.0,82,0.00,,---,0.01,100.00,VWS V14.01,2013-01-11 17:01:00,
2013-01-11 11:05:00,48.0,42.5,29.38,South,181,25.0,27.0,81,0.00,,---,0.01,97.00,VWS V14.01,2013-01-11 17:05:00,
2013-01-11 11:06:00,48.0,42.5,29.38,South,188,22.0,28.0,81,0.00,,---,0.01,93.00,VWS V14.01,2013-01-11 17:06:00,
2013-01-11 11:10:00,48.2,42.7,29.38,NW,320,22.0,29.0,81,0.00,,---,0.01,81.00,VWS V14.01,2013-01-11 17:10:00,
2013-01-11 11:11:00,48.2,42.3,29.38,SSW,195,19.0,26.0,80,0.00,,---,0.01,79.00,VWS V14.01,2013-01-11 17:11:00,
2013-01-11 11:15:00,48.2,42.3,29.37,WSW,250,27.0,30.0,80,0.00,,---,0.01,72.00,VWS V14.01,2013-01-11 17:15:00,
2013-01-11 11:16:00,48.2,42.3,29.37,South,182,22.0,29.0,80,0.00,,---,0.01,72.00,VWS V14.01,2013-01-11 17:16:00,
2013-01-11 11:20:00,48.2,42.3,29.37,South,189,25.0,33.0,80,0.00,,---,0.01,79.00,VWS V14.01,2013-01-11 17:20:00,
2013-01-11 11:21:00,48.2,42.3,29.37,SSW,206,21.0,29.0,80,0.00,,---,0.01,81.00,VWS V14.01,2013-01-11 17:21:00,
2013-01-11 11:25:00,48.2,42.3,29.37,South,178,14.0,31.0,80,0.00,,---,0.01,83.00,VWS V14.01,2013-01-11 17:25:00,
2013-01-11 11:26:00,48.2,42.3,29.37,SW,217,27.0,29.0,80,0.00,,---,0.01,84.00,VWS V14.01,2013-01-11 17:26:00,
2013-01-11 11:30:00,48.2,42.3,29.36,SSW,192,25.0,31.0,80,0.00,,---,0.01,90.00,VWS V14.01,2013-01-11 17:30:00,
2013-01-11 11:31:00,48.2,42.3,29.36,SSW,198,30.0,30.0,80,0.00,,---,0.01,88.00,VWS V14.01,2013-01-11 17:31:00,
2013-01-11 11:35:00,48.2,42.3,29.36,South,172,26.0,31.0,80,0.00,,---,0.01,97.00,VWS V14.01,2013-01-11 17:35:00,
2013-01-11 11:36:00,48.2,42.0,29.36,South,178,24.0,34.0,79,0.00,,---,0.01,106.00,VWS V14.01,2013-01-11 17:36:00,
2013-01-11 11:40:00,48.3,42.1,29.36,SSW,192,21.0,34.0,79,0.00,,---,0.01,100.00,VWS V14.01,2013-01-11 17:40:00,
2013-01-11 11:42:00,48.3,42.4,29.36,South,189,19.0,32.0,80,0.00,,---,0.01,93.00,VWS V14.01,2013-01-11 17:42:00,
2013-01-11 11:45:00,50.8,42.5,29.30,South,179,26.0,30.0,73,0.00,,---,0.01,102.00,VWS V14.01,2013-01-11 17:45:00,
2013-01-11 11:47:00,48.6,42.4,29.35,SSW,209,24.0,31.0,79,0.00,,---,0.01,91.00,VWS V14.01,2013-01-11 17:47:00,
2013-01-11 11:50:00,48.6,42.4,29.35,South,174,20.0,31.0,79,0.00,,---,0.01,88.00,VWS V14.01,2013-01-11 17:50:00,
2013-01-11 11:52:00,48.8,42.6,29.35,South,191,19.0,32.0,79,0.00,,---,0.01,93.00,VWS V14.01,2013-01-11 17:52:00,
2013-01-11 11:55:00,48.8,42.3,29.35,South,185,19.0,32.0,78,0.00,,---,0.01,86.00,VWS V14.01,2013-01-11 17:55:00,
2013-01-11 11:57:00,49.1,42.2,29.35,South,189,20.0,35.0,77,0.00,,---,0.01,86.00,VWS V14.01,2013-01-11 17:57:00,
2013-01-11 12:00:00,49.1,42.2,29.34,SW,233,28.0,35.0,77,0.00,,---,0.01,81.00,VWS V14.01,2013-01-11 18:00:00,
2013-01-11 12:02:00,49.2,42.3,29.34,SSW,195,28.0,28.0,77,0.00,,---,0.01,81.00,VWS V14.01,2013-01-11 18:02:00,
2013-01-11 12:05:00,49.4,42.2,29.34,South,182,21.0,31.0,76,0.00,,---,0.01,84.00,VWS V14.01,2013-01-11 18:05:00,
2013-01-11 12:07:00,49.4,42.2,29.34,South,169,21.0,30.0,76,0.00,,---,0.01,83.00,VWS V14.01,2013-01-11 18:07:00,
2013-01-11 12:10:00,49.5,42.3,29.34,SSW,192,31.0,31.0,76,0.00,,---,0.01,81.00,VWS V14.01,2013-01-11 18:10:00,
2013-01-11 12:12:00,49.5,42.3,29.34,SSW,192,26.0,31.0,76,0.00,,---,0.01,86.00,VWS V14.01,2013-01-11 18:12:00,
2013-01-11 12:15:00,49.5,42.3,29.32,South,188,12.0,31.0,76,0.00,,---,0.01,84.00,VWS V14.01,2013-01-11 18:15:00,
2013-01-11 12:17:00,49.6,42.4,29.32,South,186,19.0,28.0,76,0.00,,---,0.01,83.00,VWS V14.01,2013-01-11 18:17:00,
2013-01-11 12:20:00,49.6,42.0,29.32,South,175,19.0,28.0,75,0.00,,---,0.01,83.00,VWS V14.01,2013-01-11 18:20:00,
2013-01-11 12:22:00,49.8,42.2,29.32,SSW,193,19.0,29.0,75,0.00,,---,0.01,81.00,VWS V14.01,2013-01-11 18:22:00,
2013-01-11 12:25:00,49.9,42.3,29.32,South,174,25.0,29.0,75,0.00,,---,0.01,84.00,VWS V14.01,2013-01-11 18:25:00,
2013-01-11 12:27:00,50.1,42.5,29.32,South,178,24.0,30.0,75,0.00,,---,0.01,93.00,VWS V14.01,2013-01-11 18:27:00,
2013-01-11 12:30:00,50.2,42.6,29.31,South,175,22.0,30.0,75,0.00,,---,0.01,88.00,VWS V14.01,2013-01-11 18:30:00,
2013-01-11 12:32:00,50.4,42.4,29.31,SSW,195,17.0,29.0,74,0.00,,---,0.01,79.00,VWS V14.01,2013-01-11 18:32:00,
2013-01-11 12:35:00,50.5,42.2,29.31,SSW,195,18.0,31.0,73,0.00,,---,0.01,81.00,VWS V14.01,2013-01-11 18:35:00,
2013-01-11 12:38:00,50.7,42.4,29.31,South,184,21.0,33.0,73,0.00,,---,0.01,81.00,VWS V14.01,2013-01-11 18:38:00,
2013-01-11 12:40:00,50.7,42.4,29.31,South,182,18.0,33.0,73,0.00,,---,0.01,79.00,VWS V14.01,2013-01-11 18:40:00,
2013-01-11 12:43:00,50.8,42.5,29.31,SSW,196,24.0,28.0,73,0.00,,---,0.01,90.00,VWS V14.01,2013-01-11 18:43:00,
2013-01-11 12:45:00,50.8,42.5,29.30,South,179,26.0,30.0,73,0.00,,---,0.01,102.00,VWS V14.01,2013-01-11 18:45:00,
2013-01-11 12:48:00,50.8,42.5,29.30,South,179,27.0,32.0,73,0.00,,---,0.01,97.00,VWS V14.01,2013-01-11 18:48:00,
2013-01-11 12:50:00,50.8,42.5,29.30,South,175,24.0,32.0,73,0.00,,---,0.01,84.00,VWS V14.01,2013-01-11 18:50:00,
2013-01-11 12:53:00,50.8,42.5,29.30,South,186,20.0,34.0,73,0.00,,---,0.01,83.00,VWS V14.01,2013-01-11 18:53:00,
2013-01-11 12:55:00,50.8,42.5,29.30,South,182,21.0,34.0,73,0.00,,---,0.01,84.00,VWS V14.01,2013-01-11 18:55:00,
2013-01-11 12:58:00,51.0,42.7,29.30,South,179,18.0,29.0,73,0.00,,---,0.01,86.00,VWS V14.01,2013-01-11 18:58:00,
2013-01-11 13:00:00,51.0,42.7,29.29,SSW,205,22.0,29.0,73,0.00,,---,0.01,86.00,VWS V14.01,2013-01-11 19:00:00,
2013-01-11 13:03:00,51.0,42.7,29.29,South,184,13.0,34.0,73,0.00,,---,0.01,76.00,VWS V14.01,2013-01-11 19:03:00,
2013-01-11 13:05:00,51.0,42.7,29.29,SW,226,25.0,34.0,73,0.00,,---,0.01,74.00,VWS V14.01,2013-01-11 19:05:00,
2013-01-11 13:08:00,51.0,42.7,29.29,South,181,27.0,31.0,73,0.00,,---,0.01,63.00,VWS V14.01,2013-01-11 19:08:00,
2013-01-11 13:10:00,51.0,42.7,29.29,SSW,192,30.0,31.0,73,0.00,,---,0.01,63.00,VWS V14.01,2013-01-11 19:10:00,
2013-01-11 13:13:00,51.0,42.7,29.28,SW,223,22.0,32.0,73,0.00,,---,0.01,62.00,VWS V14.01,2013-01-11 19:13:00,
2013-01-11 13:15:00,51.0,42.7,29.28,South,188,25.0,32.0,73,0.00,,---,0.01,60.00,VWS V14.01,2013-01-11 19:15:00,
2013-01-11 13:18:00,51.0,42.7,29.28,South,178,20.0,32.0,73,0.00,,---,0.01,58.00,VWS V14.01,2013-01-11 19:18:00,
2013-01-11 13:20:00,51.0,42.7,29.28,South,186,26.0,32.0,73,0.00,,---,0.01,58.00,VWS V14.01,2013-01-11 19:20:00,
2013-01-11 13:23:00,51.0,42.7,29.28,SSE,168,19.0,31.0,73,0.00,,---,0.01,58.00,VWS V14.01,2013-01-11 19:23:00,
2013-01-11 13:25:00,51.0,42.7,29.28,SW,215,25.0,31.0,73,0.00,,---,0.01,58.00,VWS V14.01,2013-01-11 19:25:00,
2013-01-11 13:28:00,51.0,43.0,29.28,South,184,25.0,34.0,74,0.00,,---,0.01,58.00,VWS V14.01,2013-01-11 19:28:00,
2013-01-11 13:30:00,51.0,42.7,29.28,South,181,29.0,34.0,73,0.00,,---,0.01,58.00,VWS V14.01,2013-01-11 19:30:00,
2013-01-11 13:33:00,51.0,42.7,29.28,South,188,26.0,32.0,73,0.00,,---,0.01,60.00,VWS V14.01,2013-01-11 19:33:00,
2013-01-11 13:35:00,51.0,42.7,29.28,NW,311,21.0,32.0,73,0.00,,---,0.01,62.00,VWS V14.01,2013-01-11 19:35:00,
2013-01-11 13:38:00,51.1,42.4,29.28,South,191,17.0,32.0,72,0.00,,---,0.01,69.00,VWS V14.01,2013-01-11 19:38:00,
2013-01-11 13:40:00,51.1,42.4,29.28,South,181,21.0,32.0,72,0.00,,---,0.01,72.00,VWS V14.01,2013-01-11 19:40:00,
2013-01-11 13:44:00,51.3,42.6,29.27,SSW,192,30.0,31.0,72,0.00,,---,0.01,90.00,VWS V14.01,2013-01-11 19:44:00,
2013-01-11 13:45:00,51.3,42.6,29.27,South,176,28.0,31.0,72,0.00,,---,0.01,88.00,VWS V14.01,2013-01-11 19:45:00,
2013-01-11 13:49:00,51.4,42.7,29.27,SSW,193,33.0,33.0,72,0.00,,---,0.01,113.00,VWS V14.01,2013-01-11 19:49:00,
2013-01-11 13:50:00,51.4,42.7,29.27,South,184,27.0,33.0,72,0.00,,---,0.01,113.00,VWS V14.01,2013-01-11 19:50:00,
2013-01-11 13:54:00,51.6,42.9,29.27,West,263,30.0,31.0,72,0.00,,---,0.01,160.00,VWS V14.01,2013-01-11 19:54:00,
2013-01-11 13:55:00,51.6,42.9,29.27,SW,223,20.0,31.0,72,0.00,,---,0.01,160.00,VWS V14.01,2013-01-11 19:55:00,
2013-01-11 13:59:00,51.9,43.2,29.28,SW,217,29.0,34.0,72,0.00,,---,0.01,167.00,VWS V14.01,2013-01-11 19:59:00,
2013-01-11 14:00:00,51.9,43.2,29.28,SSW,213,22.0,34.0,72,0.00,,---,0.01,167.00,VWS V14.01,2013-01-11 20:00:00,
2013-01-11 14:04:00,52.2,43.1,29.28,SSW,198,28.0,33.0,71,0.00,,---,0.01,151.00,VWS V14.01,2013-01-11 20:04:00,
2013-01-11 14:05:00,52.2,43.1,29.28,SW,219,26.0,33.0,71,0.00,,---,0.01,151.00,VWS V14.01,2013-01-11 20:05:00,
2013-01-11 14:09:00,52.2,42.7,29.28,South,188,19.0,35.0,70,0.00,,---,0.01,111.00,VWS V14.01,2013-01-11 20:09:00,
2013-01-11 14:10:00,52.2,42.7,29.28,South,186,25.0,35.0,70,0.00,,---,0.01,111.00,VWS V14.01,2013-01-11 20:10:00,
2013-01-11 14:14:00,52.2,42.7,29.27,South,188,22.0,32.0,70,0.00,,---,0.01,95.00,VWS V14.01,2013-01-11 20:14:00,
2013-01-11 14:15:00,52.2,42.7,29.27,South,184,16.0,32.0,70,0.00,,---,0.01,95.00,VWS V14.01,2013-01-11 20:15:00,
2013-01-11 14:19:00,52.2,42.7,29.27,SSE,167,17.0,31.0,70,0.00,,---,0.01,88.00,VWS V14.01,2013-01-11 20:19:00,
2013-01-11 14:20:00,52.2,42.7,29.27,SSE,167,17.0,31.0,70,0.00,,---,0.01,88.00,VWS V14.01,2013-01-11 20:20:00,
2013-01-11 14:24:00,52.2,43.1,29.27,South,184,24.0,37.0,71,0.00,,---,0.01,76.00,VWS V14.01,2013-01-11 20:24:00,
2013-01-11 14:25:00,52.2,43.1,29.27,South,184,24.0,37.0,71,0.00,,---,0.01,76.00,VWS V14.01,2013-01-11 20:25:00,
2013-01-11 14:29:00,52.2,43.1,29.26,South,186,30.0,30.0,71,0.00,,---,0.01,62.00,VWS V14.01,2013-01-11 20:29:00,
2013-01-11 14:30:00,52.2,43.1,29.26,South,174,24.0,33.0,71,0.00,,---,0.01,62.00,VWS V14.01,2013-01-11 20:30:00,
2013-01-11 14:34:00,52.2,43.1,29.26,South,184,16.0,16.0,71,0.00,,---,0.01,62.00,VWS V14.01,2013-01-11 20:34:00,
2013-01-11 14:35:00,52.2,43.1,29.26,South,184,16.0,31.0,71,0.00,,---,0.01,62.00,VWS V14.01,2013-01-11 20:35:00,
2013-01-11 14:39:00,52.0,43.3,29.26,South,184,29.0,29.0,72,0.00,,---,0.01,62.00,VWS V14.01,2013-01-11 20:39:00,
2013-01-11 14:40:00,52.0,43.3,29.26,SSW,193,16.0,30.0,72,0.00,,---,0.01,62.00,VWS V14.01,2013-01-11 20:40:00,
2013-01-11 14:44:00,52.0,43.3,29.26,South,189,25.0,27.0,72,0.00,,---,0.01,62.00,VWS V14.01,2013-01-11 20:44:00,
2013-01-11 14:45:00,52.0,43.3,29.26,South,185,27.0,33.0,72,0.00,,---,0.01,62.00,VWS V14.01,2013-01-11 20:45:00,
2013-01-11 14:50:00,52.2,43.5,29.26,South,185,20.0,30.0,72,0.00,,---,0.01,67.00,VWS V14.01,2013-01-11 20:50:00,
2013-01-11 14:55:00,52.3,43.5,29.26,SSW,192,27.0,27.0,72,0.00,,---,0.01,69.00,VWS V14.01,2013-01-11 20:55:00,
2013-01-11 15:00:00,52.6,43.8,29.26,SSW,200,31.0,31.0,72,0.00,,---,0.01,62.00,VWS V14.01,2013-01-11 21:00:00,
2013-01-11 15:05:00,52.8,43.7,29.26,SSW,208,27.0,32.0,71,0.00,,---,0.01,55.00,VWS V14.01,2013-01-11 21:05:00,
2013-01-11 15:10:00,53.2,43.3,29.26,SSW,213,22.0,31.0,69,0.00,,---,0.01,40.00,VWS V14.01,2013-01-11 21:10:00,
2013-01-11 15:15:00,53.2,43.7,29.26,SSW,192,36.0,36.0,70,0.00,,---,0.01,39.00,VWS V14.01,2013-01-11 21:15:00,
2013-01-11 15:20:00,53.5,43.6,29.26,South,182,25.0,36.0,69,0.00,,---,0.01,40.00,VWS V14.01,2013-01-11 21:20:00,
2013-01-11 15:25:00,53.6,43.3,29.26,South,189,31.0,31.0,68,0.00,,---,0.01,30.00,VWS V14.01,2013-01-11 21:25:00,
2013-01-11 15:30:00,53.8,43.5,29.26,South,175,28.0,29.0,68,0.00,,---,0.01,28.00,VWS V14.01,2013-01-11 21:30:00,
2013-01-11 15:35:00,53.8,43.9,29.26,SSW,195,31.0,31.0,69,0.00,,---,0.01,30.00,VWS V14.01,2013-01-11 21:35:00,
2013-01-11 15:40:00,53.8,43.9,29.26,South,179,21.0,29.0,69,0.00,,---,0.01,28.00,VWS V14.01,2013-01-11 21:40:00,
2013-01-11 15:45:00,53.9,44.0,29.26,SSE,168,26.0,30.0,69,0.00,,---,0.01,37.00,VWS V14.01,2013-01-11 21:45:00,
2013-01-11 15:50:00,54.4,43.7,29.26,South,179,19.0,34.0,67,0.00,,---,0.01,33.00,VWS V14.01,2013-01-11 21:50:00,
2013-01-11 15:55:00,54.4,43.7,29.26,SSW,213,30.0,34.0,67,0.00,,---,0.01,26.00,VWS V14.01,2013-01-11 21:55:00,
2013-01-11 15:56:00,54.5,43.8,29.26,SSW,213,31.0,32.0,67,0.00,,---,0.01,30.00,VWS V14.01,2013-01-11 21:56:00,
2013-01-11 16:00:00,54.7,44.0,29.26,SW,222,30.0,34.0,67,0.00,,---,0.01,30.00,VWS V14.01,2013-01-11 22:00:00,
2013-01-11 16:01:00,54.7,43.6,29.26,SSW,192,32.0,36.0,66,0.00,,---,0.01,30.00,VWS V14.01,2013-01-11 22:01:00,
2013-01-11 16:05:00,55.3,43.3,29.26,South,188,36.0,43.0,64,0.00,,---,0.01,23.00,VWS V14.01,2013-01-11 22:05:00,
2013-01-11 16:06:00,55.4,43.4,29.26,South,186,27.0,36.0,64,0.00,,---,0.01,23.00,VWS V14.01,2013-01-11 22:06:00,
2013-01-11 16:10:00,55.6,43.6,29.26,South,189,26.0,38.0,64,0.00,,---,0.01,19.00,VWS V14.01,2013-01-11 22:10:00,
2013-01-11 16:11:00,55.4,43.4,29.26,South,189,27.0,33.0,64,0.00,,---,0.01,19.00,VWS V14.01,2013-01-11 22:11:00,
2013-01-11 16:15:00,55.3,43.8,29.26,South,182,26.0,37.0,65,0.00,,---,0.01,21.00,VWS V14.01,2013-01-11 22:15:00,
2013-01-11 16:16:00,55.1,43.6,29.26,WNW,287,26.0,33.0,65,0.00,,---,0.01,21.00,VWS V14.01,2013-01-11 22:16:00,
2013-01-11 16:20:00,55.3,43.8,29.26,South,191,20.0,35.0,65,0.00,,---,0.01,21.00,VWS V14.01,2013-01-11 22:20:00,
2013-01-11 16:21:00,55.4,43.4,29.26,South,188,26.0,34.0,64,0.00,,---,0.01,16.00,VWS V14.01,2013-01-11 22:21:00,
2013-01-11 16:25:00,55.4,43.4,29.26,SSW,213,29.0,34.0,64,0.00,,---,0.01,16.00,VWS V14.01,2013-01-11 22:25:00,
2013-01-11 16:26:00,55.6,44.0,29.26,South,186,30.0,33.0,65,0.00,,---,0.01,14.00,VWS V14.01,2013-01-11 22:26:00,
2013-01-11 16:30:00,55.6,44.0,29.27,SSW,213,28.0,33.0,65,0.00,,---,0.01,14.00,VWS V14.01,2013-01-11 22:30:00,
2013-01-11 16:31:00,55.6,43.6,29.27,South,184,36.0,36.0,64,0.00,,---,0.01,12.00,VWS V14.01,2013-01-11 22:31:00,
2013-01-11 16:35:00,55.6,44.0,29.27,SSW,212,24.0,38.0,65,0.00,,---,0.01,9.00,VWS V14.01,2013-01-11 22:35:00,
2013-01-11 16:36:00,55.6,44.0,29.27,SSW,193,26.0,31.0,65,0.00,,---,0.01,9.00,VWS V14.01,2013-01-11 22:36:00,
2013-01-11 16:40:00,55.4,43.8,29.27,South,175,32.0,38.0,65,0.00,,---,0.01,11.00,VWS V14.01,2013-01-11 22:40:00,
2013-01-11 16:41:00,55.4,43.8,29.27,SSW,210,30.0,32.0,65,0.00,,---,0.01,12.00,VWS V14.01,2013-01-11 22:41:00,
2013-01-11 16:45:00,55.6,44.0,29.27,South,179,24.0,34.0,65,0.00,,---,0.01,12.00,VWS V14.01,2013-01-11 22:45:00,
2013-01-11 16:47:00,55.7,43.7,29.27,SSW,199,33.0,38.0,64,0.00,,---,0.01,11.00,VWS V14.01,2013-01-11 22:47:00,
2013-01-11 16:50:00,56.0,43.6,29.27,SW,219,33.0,38.0,63,0.00,,---,0.01,11.00,VWS V14.01,2013-01-11 22:50:00,
2013-01-11 16:52:00,56.0,43.6,29.27,South,188,31.0,33.0,63,0.00,,---,0.01,9.00,VWS V14.01,2013-01-11 22:52:00,
2013-01-11 16:55:00,56.0,43.6,29.27,South,186,21.0,33.0,63,0.00,,---,0.01,9.00,VWS V14.01,2013-01-11 22:55:00,
2013-01-11 16:57:00,56.2,43.8,29.27,South,188,22.0,39.0,63,0.00,,---,0.01,9.00,VWS V14.01,2013-01-11 22:57:00,
2013-01-11 17:00:00,56.3,43.5,29.27,South,184,22.0,39.0,62,0.00,,---,0.01,7.00,VWS V14.01,2013-01-11 23:00:00,
2013-01-11 17:02:00,56.3,43.5,29.27,South,176,21.0,32.0,62,0.00,,---,0.01,7.00,VWS V14.01,2013-01-11 23:02:00,
2013-01-11 17:05:00,56.3,43.5,29.27,SSW,208,27.0,36.0,62,0.00,,---,0.01,7.00,VWS V14.01,2013-01-11 23:05:00,
2013-01-11 17:07:00,56.2,43.8,29.27,South,186,24.0,33.0,63,0.00,,---,0.01,0.00,VWS V14.01,2013-01-11 23:07:00,
2013-01-11 17:10:00,56.0,44.0,29.27,South,179,28.0,33.0,64,0.00,,---,0.01,0.00,VWS V14.01,2013-01-11 23:10:00,
2013-01-11 17:12:00,56.0,44.0,29.27,South,178,17.0,36.0,64,0.00,,---,0.01,0.00,VWS V14.01,2013-01-11 23:12:00,
2013-01-11 17:15:00,56.0,44.0,29.28,South,179,32.0,36.0,64,0.00,,---,0.01,0.00,VWS V14.01,2013-01-11 23:15:00,
2013-01-11 17:17:00,56.0,44.0,29.28,SSW,195,27.0,33.0,64,0.00,,---,0.01,0.00,VWS V14.01,2013-01-11 23:17:00,
2013-01-11 17:20:00,56.0,44.0,29.28,South,181,22.0,33.0,64,0.00,,---,0.01,0.00,VWS V14.01,2013-01-11 23:20:00,
2013-01-11 17:22:00,55.9,44.3,29.28,SSE,161,19.0,32.0,65,0.00,,---,0.01,0.00,VWS V14.01,2013-01-11 23:22:00,
2013-01-11 17:25:00,55.7,44.1,29.28,SSW,209,20.0,32.0,65,0.00,,---,0.01,0.00,VWS V14.01,2013-01-11 23:25:00,
2013-01-11 17:27:00,55.7,44.1,29.28,SSW,203,21.0,34.0,65,0.00,,---,0.01,0.00,VWS V14.01,2013-01-11 23:27:00,
2013-01-11 17:30:00,55.7,44.1,29.29,SSW,192,29.0,34.0,65,0.00,,---,0.01,0.00,VWS V14.01,2013-01-11 23:30:00,
2013-01-11 17:32:00,55.7,44.1,29.29,South,179,24.0,34.0,65,0.00,,---,0.01,0.00,VWS V14.01,2013-01-11 23:32:00,
2013-01-11 17:35:00,55.7,44.1,29.29,SSW,210,20.0,34.0,65,0.00,,---,0.01,0.00,VWS V14.01,2013-01-11 23:35:00,
2013-01-11 17:38:00,55.7,44.1,29.29,South,186,24.0,33.0,65,0.00,,---,0.01,0.00,VWS V14.01,2013-01-11 23:38:00,
2013-01-11 17:40:00,55.7,44.1,29.29,South,179,24.0,33.0,65,0.00,,---,0.01,0.00,VWS V14.01,2013-01-11 23:40:00,
2013-01-11 17:43:00,55.7,44.1,29.29,South,184,26.0,32.0,65,0.00,,---,0.01,0.00,VWS V14.01,2013-01-11 23:43:00,
2013-01-11 17:45:00,55.7,44.1,29.30,SSW,208,25.0,32.0,65,0.00,,---,0.01,0.00,VWS V14.01,2013-01-11 23:45:00,
2013-01-11 17:48:00,55.7,44.1,29.30,South,179,25.0,37.0,65,0.00,,---,0.01,0.00,VWS V14.01,2013-01-11 23:48:00,
2013-01-11 17:50:00,55.7,44.1,29.30,SSW,203,21.0,37.0,65,0.00,,---,0.01,0.00,VWS V14.01,2013-01-11 23:50:00,
2013-01-11 17:53:00,55.6,44.4,29.30,South,169,17.0,34.0,66,0.00,,---,0.01,0.00,VWS V14.01,2013-01-11 23:53:00,
2013-01-11 17:55:00,55.6,44.4,29.30,South,185,26.0,34.0,66,0.00,,---,0.01,0.00,VWS V14.01,2013-01-11 23:55:00,
2013-01-11 17:58:00,55.6,44.4,29.31,SSW,196,29.0,35.0,66,0.00,,---,0.01,0.00,VWS V14.01,2013-01-11 23:58:00,
2013-01-11 18:00:00,55.6,44.4,29.31,SSW,213,31.0,35.0,66,0.00,,---,0.01,0.00,VWS V14.01,2013-01-12 00:00:00,
2013-01-11 18:03:00,55.4,44.2,29.31,South,188,25.0,31.0,66,0.00,,---,0.01,0.00,VWS V14.01,2013-01-12 00:03:00,
2013-01-11 18:05:00,55.4,44.2,29.31,SSW,210,20.0,31.0,66,0.00,,---,0.01,0.00,VWS V14.01,2013-01-12 00:05:00,
2013-01-11 18:08:00,55.6,44.0,29.31,SW,233,21.0,34.0,65,0.00,,---,0.01,0.00,VWS V14.01,2013-01-12 00:08:00,
2013-01-11 18:10:00,55.6,44.0,29.31,SW,215,22.0,34.0,65,0.00,,---,0.01,0.00,VWS V14.01,2013-01-12 00:10:00,
2013-01-11 18:13:00,55.6,44.0,29.33,WSW,246,21.0,31.0,65,0.00,,---,0.01,0.00,VWS V14.01,2013-01-12 00:13:00,
2013-01-11 18:15:00,55.6,44.0,29.33,WSW,240,18.0,31.0,65,0.00,,---,0.01,0.00,VWS V14.01,2013-01-12 00:15:00,
2013-01-11 18:18:00,55.7,43.7,29.33,SW,215,17.0,26.0,64,0.00,,---,0.01,0.00,VWS V14.01,2013-01-12 00:18:00,
2013-01-11 18:20:00,55.7,43.7,29.33,WSW,243,20.0,26.0,64,0.00,,---,0.01,0.00,VWS V14.01,2013-01-12 00:20:00,
2013-01-11 18:24:00,55.9,43.5,29.33,SSW,212,17.0,29.0,63,0.00,,---,0.01,0.00,VWS V14.01,2013-01-12 00:24:00,
2013-01-11 18:25:00,55.9,43.5,29.33,SW,215,20.0,29.0,63,0.00,,---,0.01,0.00,VWS V14.01,2013-01-12 00:25:00,
2013-01-11 18:29:00,55.7,43.7,29.34,SW,215,19.0,27.0,64,0.00,,---,0.01,0.00,VWS V14.01,2013-01-12 00:29:00,
2013-01-11 18:30:00,55.7,43.7,29.34,SW,220,13.0,27.0,64,0.00,,---,0.01,0.00,VWS V14.01,2013-01-12 00:30:00,
2013-01-11 18:34:00,55.4,43.8,29.34,SW,215,17.0,26.0,65,0.00,,---,0.01,0.00,VWS V14.01,2013-01-12 00:34:00,
2013-01-11 18:35:00,55.4,43.8,29.34,SSW,213,13.0,26.0,65,0.00,,---,0.01,0.00,VWS V14.01,2013-01-12 00:35:00,
2013-01-11 18:39:00,55.0,43.9,29.34,SW,219,17.0,26.0,66,0.00,,---,0.01,0.00,VWS V14.01,2013-01-12 00:39:00,
2013-01-11 18:40:00,55.0,43.9,29.34,SW,219,17.0,26.0,66,0.00,,---,0.01,0.00,VWS V14.01,2013-01-12 00:40:00,
2013-01-11 18:44:00,54.5,43.8,29.34,SW,223,13.0,19.0,67,0.00,,---,0.01,0.00,VWS V14.01,2013-01-12 00:44:00,
2013-01-11 18:45:00,54.5,43.8,29.34,SW,223,13.0,19.0,67,0.00,,---,0.01,0.00,VWS V14.01,2013-01-12 00:45:00,
2013-01-11 18:49:00,54.2,43.9,29.34,SSW,213,12.0,12.0,68,0.00,,---,0.01,0.00,VWS V14.01,2013-01-12 00:49:00,
2013-01-11 18:50:00,54.2,43.9,29.34,SW,236,11.0,24.0,68,0.00,,---,0.01,0.00,VWS V14.01,2013-01-12 00:50:00,
2013-01-11 18:54:00,53.8,43.9,29.34,SW,234,11.0,14.0,69,0.00,,---,0.01,0.00,VWS V14.01,2013-01-12 00:54:00,
2013-01-11 18:55:00,53.8,43.9,29.34,SW,233,14.0,20.0,69,0.00,,---,0.01,0.00,VWS V14.01,2013-01-12 00:55:00,
2013-01-11 18:59:00,54.2,42.7,29.36,WSW,241,14.0,17.0,65,0.00,,---,0.01,0.00,VWS V14.01,2013-01-12 00:59:00,
2013-01-11 19:00:00,54.2,42.7,29.36,SW,232,17.0,22.0,65,0.00,,---,0.01,0.00,VWS V14.01,2013-01-12 01:00:00,
2013-01-11 19:04:00,54.8,42.0,29.36,SSW,210,18.0,22.0,62,0.00,,---,0.01,0.00,VWS V14.01,2013-01-12 01:04:00,
2013-01-11 19:05:00,54.8,42.0,29.36,WSW,257,17.0,27.0,62,0.00,,---,0.01,0.00,VWS V14.01,2013-01-12 01:05:00,
2013-01-11 19:09:00,55.6,39.7,29.36,SW,234,24.0,31.0,55,0.00,,---,0.01,0.00,VWS V14.01,2013-01-12 01:09:00,
2013-01-11 19:10:00,55.6,40.2,29.36,SW,233,31.0,32.0,56,0.00,,---,0.01,0.00,VWS V14.01,2013-01-12 01:10:00,
2013-01-11 19:15:00,56.2,38.3,29.37,WSW,237,19.0,30.0,51,0.00,,---,0.01,0.00,VWS V14.01,2013-01-12 01:15:00,
2013-01-11 19:20:00,56.3,37.9,29.37,WSW,243,32.0,32.0,50,0.00,,---,0.01,0.00,VWS V14.01,2013-01-12 01:20:00,
2013-01-11 19:25:00,56.6,36.1,29.37,SW,223,29.0,33.0,46,0.00,,---,0.01,0.00,VWS V14.01,2013-01-12 01:25:00,
2013-01-11 19:30:00,56.3,35.2,29.37,WSW,244,28.0,31.0,45,0.00,,---,0.01,0.00,VWS V14.01,2013-01-12 01:30:00,
2013-01-11 19:35:00,56.0,35.0,29.37,SW,236,27.0,28.0,45,0.00,,---,0.01,0.00,VWS V14.01,2013-01-12 01:35:00,
2013-01-11 19:40:00,55.7,34.7,29.37,SW,229,28.0,32.0,45,0.00,,---,0.01,0.00,VWS V14.01,2013-01-12 01:40:00,
2013-01-11 19:45:00,55.9,32.0,29.39,WSW,244,24.0,35.0,40,0.00,,---,0.01,0.00,VWS V14.01,2013-01-12 01:45:00,
2013-01-11 19:50:00,55.6,29.8,29.39,West,270,30.0,36.0,37,0.00,,---,0.01,0.00,VWS V14.01,2013-01-12 01:50:00,
2013-01-11 19:55:00,55.4,25.3,29.39,West,261,26.0,36.0,31,0.00,,---,0.01,0.00,VWS V14.01,2013-01-12 01:55:00,
2013-01-11 19:56:00,55.1,25.0,29.39,WSW,253,20.0,29.0,31,0.00,,---,0.01,0.00,VWS V14.01,2013-01-12 01:56:00,
2013-01-11 20:00:00,54.7,23.9,29.42,WSW,250,25.0,31.0,30,0.00,,---,0.01,0.00,VWS V14.01,2013-01-12 02:00:00,
2013-01-11 20:01:00,54.4,23.6,29.42,NNW,330,19.0,30.0,30,0.00,,---,0.01,0.00,VWS V14.01,2013-01-12 02:01:00,
2013-01-11 20:05:00,53.9,23.2,29.42,NW,304,24.0,30.0,30,0.00,,---,0.01,0.00,VWS V14.01,2013-01-12 02:05:00,
2013-01-11 20:06:00,53.8,22.3,29.42,WNW,302,24.0,30.0,29,0.00,,---,0.01,0.00,VWS V14.01,2013-01-12 02:06:00,
2013-01-11 20:10:00,53.6,23.7,29.42,WSW,253,20.0,30.0,31,0.00,,---,0.01,0.00,VWS V14.01,2013-01-12 02:10:00,
2013-01-11 20:11:00,53.3,24.2,29.42,WSW,257,19.0,24.0,32,0.00,,---,0.01,0.00,VWS V14.01,2013-01-12 02:11:00,
2013-01-11 20:15:00,52.8,25.9,29.44,North,354,25.0,25.0,35,0.00,,---,0.01,0.00,VWS V14.01,2013-01-12 02:15:00,
2013-01-11 20:16:00,52.6,25.8,29.44,West,274,17.0,27.0,35,0.00,,---,0.01,0.00,VWS V14.01,2013-01-12 02:16:00,
2013-01-11 20:20:00,52.5,22.0,29.44,WSW,248,24.0,30.0,30,0.00,,---,0.01,0.00,VWS V14.01,2013-01-12 02:20:00,
2013-01-11 20:21:00,52.5,22.0,29.44,West,268,19.0,28.0,30,0.00,,---,0.01,0.00,VWS V14.01,2013-01-12 02:21:00,
2013-01-11 20:25:00,52.0,19.9,29.44,WSW,257,22.0,28.0,28,0.00,,---,0.01,0.00,VWS V14.01,2013-01-12 02:25:00,
2013-01-11 20:26:00,51.9,19.8,29.44,WSW,241,30.0,30.0,28,0.00,,---,0.01,0.00,VWS V14.01,2013-01-12 02:26:00,
2013-01-11 20:30:00,51.7,19.7,29.44,NNW,340,24.0,30.0,28,0.00,,---,0.01,0.00,VWS V14.01,2013-01-12 02:30:00,
2013-01-11 20:31:00,51.6,19.6,29.44,West,280,27.0,27.0,28,0.00,,---,0.01,0.00,VWS V14.01,2013-01-12 02:31:00,
2013-01-11 20:35:00,51.4,18.6,29.44,North,354,22.0,30.0,27,0.00,,---,0.01,0.00,VWS V14.01,2013-01-12 02:35:00,
2013-01-11 20:37:00,51.3,18.5,29.44,NNW,339,24.0,29.0,27,0.00,,---,0.01,0.00,VWS V14.01,2013-01-12 02:37:00,
2013-01-11 20:40:00,51.1,18.3,29.44,WNW,287,27.0,29.0,27,0.00,,---,0.01,0.00,VWS V14.01,2013-01-12 02:40:00,
2013-01-11 20:42:00,51.3,18.5,29.44,NNW,328,25.0,33.0,27,0.00,,---,0.01,0.00,VWS V14.01,2013-01-12 02:42:00,
2013-01-11 20:45:00,51.3,19.3,29.46,West,271,26.0,33.0,28,0.00,,---,0.01,0.00,VWS V14.01,2013-01-12 02:45:00,
2013-01-11 20:47:00,51.1,19.1,29.46,West,277,19.0,36.0,28,0.00,,---,0.01,0.00,VWS V14.01,2013-01-12 02:47:00,
2013-01-11 20:50:00,51.0,19.1,29.46,NNW,340,28.0,36.0,28,0.00,,---,0.01,0.00,VWS V14.01,2013-01-12 02:50:00,
2013-01-11 20:52:00,50.8,18.9,29.46,WNW,285,20.0,32.0,28,0.00,,---,0.01,0.00,VWS V14.01,2013-01-12 02:52:00,
2013-01-11 20:55:00,50.7,18.8,29.46,NW,325,24.0,33.0,28,0.00,,---,0.01,0.00,VWS V14.01,2013-01-12 02:55:00,
2013-01-11 20:57:00,50.5,18.6,29.46,WSW,253,18.0,32.0,28,0.00,,---,0.01,0.00,VWS V14.01,2013-01-12 02:57:00,
2013-01-11 21:00:00,50.4,18.5,29.48,NW,309,24.0,32.0,28,0.00,,---,0.01,0.00,VWS V14.01,2013-01-12 03:00:00,
2013-01-11 21:02:00,50.1,19.1,29.48,NNW,329,17.0,33.0,29,0.00,,---,0.01,0.00,VWS V14.01,2013-01-12 03:02:00,
2013-01-11 21:05:00,50.1,18.3,29.48,West,267,22.0,33.0,28,0.00,,---,0.01,0.00,VWS V14.01,2013-01-12 03:05:00,
2013-01-11 21:07:00,49.8,19.6,29.48,NNW,337,22.0,33.0,30,0.00,,---,0.01,0.00,VWS V14.01,2013-01-12 03:07:00,
2013-01-11 21:10:00,49.6,19.5,29.48,NNW,336,29.0,33.0,30,0.00,,---,0.01,0.00,VWS V14.01,2013-01-12 03:10:00,
2013-01-11 21:13:00,49.4,20.0,29.48,West,268,22.0,35.0,31,0.00,,---,0.01,0.00,VWS V14.01,2013-01-12 03:13:00,
2013-01-11 21:15:00,49.4,20.0,29.49,West,263,26.0,35.0,31,0.00,,---,0.01,0.00,VWS V14.01,2013-01-12 03:15:00,
2013-01-11 21:18:00,48.9,21.8,29.49,West,277,18.0,28.0,34,0.00,,---,0.01,0.00,VWS V14.01,2013-01-12 03:18:00,
2013-01-11 21:20:00,48.8,21.7,29.49,West,264,16.0,28.0,34,0.00,,---,0.01,0.00,VWS V14.01,2013-01-12 03:20:00,
2013-01-11 21:23:00,48.5,22.1,29.49,West,264,34.0,34.0,35,0.00,,---,0.01,0.00,VWS V14.01,2013-01-12 03:23:00,
2013-01-11 21:25:00,48.3,22.6,29.49,West,265,24.0,37.0,36,0.00,,---,0.01,0.00,VWS V14.01,2013-01-12 03:25:00,
2013-01-11 21:28:00,47.1,25.2,29.49,WNW,285,24.0,37.0,42,0.00,,---,0.01,0.00,VWS V14.01,2013-01-12 03:28:00,
2013-01-11 21:30:00,46.2,30.9,29.53,NW,316,31.0,37.0,55,0.00,,---,0.01,0.00,VWS V14.01,2013-01-12 03:30:00,
2013-01-11 21:33:00,43.8,32.8,29.53,WNW,296,37.0,37.0,65,0.00,,---,0.01,0.00,VWS V14.01,2013-01-12 03:33:00,
2013-01-11 21:35:00,43.3,33.1,29.53,WNW,289,24.0,37.0,67,0.00,,---,0.01,0.00,VWS V14.01,2013-01-12 03:35:00,
2013-01-11 21:38:00,42.1,33.4,29.53,NNW,335,20.0,37.0,71,0.00,,---,0.01,0.00,VWS V14.01,2013-01-12 03:38:00,
2013-01-11 21:40:00,36.6,30.4,29.62,NW,322,18.0,21.0,78,0.00,,---,0.01,0.00,VWS V14.01,2013-01-12 03:40:00,
2013-01-11 21:43:00,41.1,33.5,29.56,NNW,344,19.0,31.0,74,0.00,,---,0.01,0.00,VWS V14.01,2013-01-12 03:43:00,
2013-01-11 21:45:00,40.9,33.3,29.56,WNW,295,29.0,31.0,74,0.00,,---,0.01,0.00,VWS V14.01,2013-01-12 03:45:00,
2013-01-11 21:49:00,40.1,32.8,29.56,WNW,284,26.0,32.0,75,0.00,,---,0.01,0.00,VWS V14.01,2013-01-12 03:49:00,
2013-01-11 21:50:00,39.9,32.6,29.56,NW,311,25.0,32.0,75,0.00,,---,0.01,0.00,VWS V14.01,2013-01-12 03:50:00,
2013-01-11 21:54:00,39.3,32.0,29.56,SW,215,25.0,31.0,75,0.00,,---,0.01,0.00,VWS V14.01,2013-01-12 03:54:00,
2013-01-11 21:55:00,39.3,32.0,29.56,WNW,294,24.0,31.0,75,0.00,,---,0.01,0.00,VWS V14.01,2013-01-12 03:55:00,
2013-01-11 21:59:00,38.9,31.7,29.58,NW,325,20.0,30.0,75,0.00,,---,0.01,0.00,VWS V14.01,2013-01-12 03:59:00,
2013-01-11 22:00:00,38.9,31.7,29.58,NNW,336,17.0,30.0,75,0.00,,---,0.01,0.00,VWS V14.01,2013-01-12 04:00:00,
2013-01-11 22:04:00,38.5,31.6,29.58,NNW,339,22.0,27.0,76,0.00,,---,0.01,0.00,VWS V14.01,2013-01-12 04:04:00,
2013-01-11 22:05:00,38.5,31.6,29.58,NW,319,22.0,28.0,76,0.00,,---,0.01,0.00,VWS V14.01,2013-01-12 04:05:00,
2013-01-11 22:09:00,38.0,31.1,29.58,NNW,332,19.0,28.0,76,0.00,,---,0.01,0.00,VWS V14.01,2013-01-12 04:09:00,
2013-01-11 22:10:00,38.0,31.1,29.58,NW,322,22.0,28.0,76,0.00,,---,0.01,0.00,VWS V14.01,2013-01-12 04:10:00,
2013-01-11 22:14:00,37.5,31.0,29.60,WNW,298,18.0,31.0,77,0.00,,---,0.01,0.00,VWS V14.01,2013-01-12 04:14:00,
2013-01-11 22:15:00,37.5,31.0,29.60,WNW,295,19.0,31.0,77,0.00,,---,0.01,0.00,VWS V14.01,2013-01-12 04:15:00,
2013-01-11 22:19:00,37.2,30.7,29.60,NW,323,24.0,28.0,77,0.00,,---,0.01,0.00,VWS V14.01,2013-01-12 04:19:00,
2013-01-11 22:20:00,37.2,30.7,29.60,NW,323,24.0,28.0,77,0.00,,---,0.01,0.00,VWS V14.01,2013-01-12 04:20:00,
2013-01-11 22:24:00,37.0,30.5,29.60,North,0,21.0,21.0,77,0.00,,---,0.01,0.00,VWS V14.01,2013-01-12 04:24:00,
2013-01-11 22:25:00,37.0,30.5,29.60,North,0,18.0,26.0,77,0.00,,---,0.01,0.00,VWS V14.01,2013-01-12 04:25:00,
2013-01-11 22:29:00,36.9,30.7,29.62,WNW,292,13.0,18.0,78,0.00,,---,0.01,0.00,VWS V14.01,2013-01-12 04:29:00,
2013-01-11 22:30:00,36.9,30.7,29.62,NNW,333,18.0,22.0,78,0.00,,---,0.01,0.00,VWS V14.01,2013-01-12 04:30:00,
2013-01-11 22:35:00,36.8,30.6,29.62,WNW,288,17.0,18.0,78,0.00,,---,0.01,0.00,VWS V14.01,2013-01-12 04:35:00,
2013-01-11 22:40:00,36.5,30.3,29.62,NW,325,17.0,20.0,78,0.00,,---,0.01,0.00,VWS V14.01,2013-01-12 04:40:00,
2013-01-11 22:45:00,36.2,29.7,29.63,North,0,14.0,18.0,77,0.00,,---,0.01,0.00,VWS V14.01,2013-01-12 04:45:00,
2013-01-11 22:50:00,35.9,28.8,29.63,NW,323,19.0,24.0,75,0.00,,---,0.01,0.00,VWS V14.01,2013-01-12 04:50:00,
2013-01-11 22:55:00,35.5,28.4,29.63,North,353,21.0,21.0,75,0.00,,---,0.01,0.00,VWS V14.01,2013-01-12 04:55:00,
2013-01-11 23:00:00,35.2,28.1,29.65,NW,318,17.0,24.0,75,0.00,,---,0.01,0.00,VWS V14.01,2013-01-12 05:00:00,
2013-01-11 23:01:00,35.2,28.1,29.65,NNW,333,13.0,20.0,75,0.00,,---,0.01,0.00,VWS V14.01,2013-01-12 05:01:00,
2013-01-11 23:03:00,35.0,28.2,29.65,NW,311,9.0,20.0,76,0.00,,---,0.01,0.00,VWS V14.01,2013-01-12 05:03:00,
2013-01-11 23:05:00,35.0,28.2,29.65,NW,308,14.0,20.0,76,0.00,,---,0.01,0.00,VWS V14.01,2013-01-12 05:05:00,
2013-01-11 23:08:00,34.9,28.1,29.65,NNW,337,17.0,19.0,76,0.00,,---,0.01,0.00,VWS V14.01,2013-01-12 05:08:00,
2013-01-11 23:10:00,34.7,27.9,29.65,NW,309,13.0,20.0,76,0.00,,---,0.01,0.00,VWS V14.01,2013-01-12 05:10:00,
2013-01-11 23:13:00,34.7,27.9,29.66,NNW,328,12.0,21.0,76,0.00,,---,0.01,0.00,VWS V14.01,2013-01-12 05:13:00,
2013-01-11 23:15:00,34.7,27.9,29.66,NNW,333,16.0,21.0,76,0.00,,---,0.01,0.00,VWS V14.01,2013-01-12 05:15:00,
2013-01-11 23:18:00,34.6,27.8,29.66,NNW,346,16.0,19.0,76,0.00,,---,0.01,0.00,VWS V14.01,2013-01-12 05:18:00,
2013-01-11 23:20:00,34.6,27.8,29.66,NW,322,13.0,19.0,76,0.00,,---,0.01,0.00,VWS V14.01,2013-01-12 05:20:00,
2013-01-11 23:23:00,34.6,28.1,29.66,NNW,330,16.0,18.0,77,0.00,,---,0.01,0.00,VWS V14.01,2013-01-12 05:23:00,
2013-01-11 23:25:00,34.4,28.0,29.66,North,0,11.0,18.0,77,0.00,,---,0.01,0.00,VWS V14.01,2013-01-12 05:25:00,
2013-01-11 23:28:00,34.4,28.0,29.66,NW,308,9.0,16.0,77,0.00,,---,0.01,0.00,VWS V14.01,2013-01-12 05:28:00,
2013-01-11 23:30:00,34.4,28.0,29.66,NW,320,12.0,16.0,77,0.00,,---,0.01,0.00,VWS V14.01,2013-01-12 05:30:00,
2013-01-11 23:33:00,34.3,27.9,29.66,NNW,336,19.0,22.0,77,0.00,,---,0.01,0.00,VWS V14.01,2013-01-12 05:33:00,
2013-01-11 23:35:00,34.3,27.9,29.66,NW,319,14.0,22.0,77,0.00,,---,0.01,0.00,VWS V14.01,2013-01-12 05:35:00,
2013-01-11 23:39:00,34.0,26.9,29.66,NNW,330,19.0,30.0,75,0.00,,---,0.01,0.00,VWS V14.01,2013-01-12 05:39:00,
2013-01-11 23:40:00,34.0,26.9,29.66,NW,305,22.0,30.0,75,0.00,,---,0.01,0.00,VWS V14.01,2013-01-12 05:40:00,
2013-01-11 23:44:00,34.0,26.6,29.67,WNW,288,16.0,30.0,74,0.00,,---,0.01,0.00,VWS V14.01,2013-01-12 05:44:00,
2013-01-11 23:45:00,34.0,26.6,29.67,WNW,292,14.0,30.0,74,0.00,,---,0.01,0.00,VWS V14.01,2013-01-12 05:45:00,
2013-01-11 23:49:00,34.0,26.6,29.67,NNW,335,21.0,24.0,74,0.00,,---,0.01,0.00,VWS V14.01,2013-01-12 05:49:00,
2013-01-11 23:50:00,34.0,26.6,29.67,NNW,342,17.0,24.0,74,0.00,,---,0.01,0.00,VWS V14.01,2013-01-12 05:50:00,
2013-01-11 23:54:00,34.0,26.6,29.67,NNW,333,17.0,22.0,74,0.00,,---,0.01,0.00,VWS V14.01,2013-01-12 05:54:00,
2013-01-11 23:55:00,34.0,26.6,29.67,NW,311,17.0,22.0,74,0.00,,---,0.01,0.00,VWS V14.01,2013-01-12 05:55:00,
2013-01-11 23:59:00,34.0,26.6,29.69,NNW,346,14.0,19.0,74,0.00,,---,0.01,0.00,VWS V14.01,2013-01-12 05:59:00,